Soldotna, AK

12:12 PM AKDT on June 28, 2017 (GMT -0800)
Soldotna

Weather History for PASX - December, 2011

Change the Weather History Date:

Saturday, December 31, 2011

  Actual Average Record
Temperature  
Mean Temperature -3 °F -  
Max Temperature 5 °F 24 °F 42 °F (2014)
Min Temperature -11 °F 8 °F -29 °F (1964)
Degree Days  
Heating Degree Days 68    
Moisture  
Dew Point -4 °F    
Average Humidity 84    
Maximum Humidity 100    
Minimum Humidity 59    
Precipitation  
Precipitation 0.00 in - - ()
Sea Level Pressure  
Sea Level Pressure 29.84 in    
Wind  
Wind Speed 2 mph (East)    
Max Wind Speed 7 mph    
Max Gust Speed -    
Visibility 9 miles    
Events      
Averages and records for this station are not official NWS values.
T = Trace of Precipitation, MM = Missing Value Source: NWS Daily Summary

Daily Weather History Graph

Daily Weather History Graph

Search for Another Location

Airport or City:

Trip Planner

Search our weather history database for the weather conditions in past years. The results will help you decide how hot, cold, wet, or windy it might be!

Date:

Astronomy

Dec. 31, 2011 Rise Set
Actual Time 10:11 AM AKST 4:03 PM AKST
Civil Twilight 9:12 AM AKST 5:01 PM AKST
Nautical Twilight 8:15 AM AKST 5:59 PM AKST
Astronomical Twilight 7:23 AM AKST 6:51 PM AKST
Moon 11:50 AM AKST (12/31) 12:50 AM AKST (12/31)
Length of Visible Light 7h 48m
Length of Day
5h 51m
Waxing Crescent, 46% of the Moon is Illuminated
Dec 31
Waxing Crescent
Dec 31
First Quarter
Jan 8
Full
Jan 16
Last Quarter
Jan 22
New

Hourly Weather History & Observations

Time (AKST) Temp. Windchill Dew Point Humidity Pressure Visibility Wind Dir Wind Speed Gust Speed Precip Events Conditions
12:16 AM 3.2 °F - -0.4 °F 85% 29.64 in 10.0 mi Calm Calm - N/A   Overcast
12:36 AM 3.2 °F -4.2 °F -0.4 °F 85% 29.64 in 10.0 mi ESE 3.5 mph - N/A   Overcast
12:56 AM 3.2 °F -4.2 °F -0.4 °F 85% 29.65 in 10.0 mi East 3.5 mph - N/A   Overcast
1:16 AM 3.2 °F -6.2 °F -0.4 °F 85% 29.65 in 10.0 mi ESE 4.6 mph - N/A   Overcast
1:36 AM 3.2 °F -7.8 °F 1.4 °F 92% 29.66 in 10.0 mi ESE 5.8 mph - N/A   Overcast
1:56 AM 3.2 °F -6.2 °F 1.4 °F 92% 29.67 in 10.0 mi East 4.6 mph - N/A   Overcast
2:16 AM 5.0 °F - 1.4 °F 85% 29.68 in 10.0 mi Calm Calm - N/A   Overcast
2:36 AM 3.2 °F -4.2 °F -0.4 °F 85% 29.69 in 10.0 mi NE 3.5 mph - N/A   Overcast
2:56 AM 3.2 °F - 1.4 °F 92% 29.70 in 10.0 mi Calm Calm - N/A   Overcast
3:16 AM 3.2 °F -4.2 °F 1.4 °F 92% 29.71 in 10.0 mi East 3.5 mph - N/A   Overcast
3:36 AM 3.2 °F -4.2 °F -0.4 °F 85% 29.71 in 10.0 mi East 3.5 mph - N/A   Overcast
3:56 AM 3.2 °F - -0.4 °F 85% 29.72 in 10.0 mi Calm Calm - N/A   Overcast
4:16 AM 3.2 °F - -0.4 °F 85% 29.73 in 10.0 mi Calm Calm - N/A   Overcast
4:36 AM 3.2 °F - -0.4 °F 85% 29.73 in 10.0 mi Calm Calm - N/A   Overcast
4:56 AM 1.4 °F - -2.2 °F 85% 29.74 in 10.0 mi Calm Calm - N/A   Overcast
5:16 AM 3.2 °F - 1.4 °F 92% 29.74 in 10.0 mi Calm Calm - N/A   Overcast
5:36 AM 3.2 °F -4.2 °F -0.4 °F 85% 29.75 in 10.0 mi East 3.5 mph - N/A   Overcast
6:16 AM 1.4 °F -6.2 °F -2.2 °F 85% 29.76 in 10.0 mi East 3.5 mph - N/A   Mostly Cloudy
6:36 AM 1.4 °F -6.2 °F -2.2 °F 85% 29.76 in 10.0 mi ESE 3.5 mph - N/A   Partly Cloudy
6:56 AM -0.4 °F - -5.8 °F 78% 29.77 in 10.0 mi Calm Calm - N/A   Scattered Clouds
7:16 AM -0.4 °F - -4.0 °F 85% 29.78 in 10.0 mi Calm Calm - N/A   Scattered Clouds
7:36 AM -2.2 °F -10.4 °F -7.6 °F 78% 29.79 in 10.0 mi East 3.5 mph - N/A   Overcast
7:56 AM -2.2 °F - -4.0 °F 92% 29.80 in 5.0 mi Calm Calm - N/A   Overcast
8:16 AM -0.4 °F - -2.2 °F 92% 29.81 in 6.0 mi Calm Calm - N/A   Overcast
8:36 AM -0.4 °F - -5.8 °F 78% 29.82 in 6.0 mi Calm Calm - N/A   Overcast
8:56 AM -0.4 °F -8.3 °F -2.2 °F 92% 29.83 in 7.0 mi ESE 3.5 mph - N/A   Overcast
9:16 AM -0.4 °F - -4.0 °F 85% 29.84 in 7.0 mi Calm Calm - N/A   Overcast
9:36 AM -0.4 °F -10.4 °F -0.4 °F 100% 29.85 in 8.0 mi ESE 4.6 mph - N/A   Overcast
9:56 AM 1.4 °F -6.2 °F -4.0 °F 78% 29.86 in 6.0 mi ESE 3.5 mph - N/A   Overcast
10:16 AM 1.4 °F -11.3 °F -2.2 °F 85% 29.86 in 5.0 mi ESE 6.9 mph - N/A   Overcast
10:36 AM 1.4 °F -9.9 °F -4.0 °F 78% 29.86 in 9.0 mi East 5.8 mph - N/A   Overcast
10:56 AM 1.4 °F -9.9 °F -2.2 °F 85% 29.87 in 10.0 mi ESE 5.8 mph - N/A   Overcast
11:16 AM 1.4 °F -8.3 °F -2.2 °F 85% 29.87 in 9.0 mi East 4.6 mph - N/A   Overcast
11:36 AM 1.4 °F - -0.4 °F 92% 29.88 in 8.0 mi Calm Calm - N/A   Overcast
11:56 AM 1.4 °F -6.2 °F -0.4 °F 92% 29.89 in 8.0 mi East 3.5 mph - N/A   Overcast
12:16 PM 1.4 °F -8.3 °F -0.4 °F 92% 29.90 in 8.0 mi East 4.6 mph - N/A   Overcast
12:36 PM 3.2 °F -6.2 °F -2.2 °F 78% 29.90 in 7.0 mi East 4.6 mph - N/A   Overcast
12:56 PM 3.2 °F -6.2 °F 1.4 °F 92% 29.91 in 7.0 mi East 4.6 mph - N/A   Overcast
1:16 PM 3.2 °F -6.2 °F -0.4 °F 85% 29.91 in 5.0 mi East 4.6 mph - N/A   Overcast
1:36 PM 3.2 °F -6.2 °F -0.4 °F 85% 29.91 in 5.0 mi ENE 4.6 mph - N/A   Overcast
1:56 PM 3.2 °F -4.2 °F 1.4 °F 92% 29.91 in 6.0 mi East 3.5 mph - N/A   Overcast
2:16 PM 3.2 °F -6.2 °F -0.4 °F 85% 29.92 in 7.0 mi East 4.6 mph - N/A   Overcast
2:36 PM 3.2 °F -4.2 °F 1.4 °F 92% 29.92 in 5.0 mi ENE 3.5 mph - N/A   Overcast
2:56 PM 5.0 °F -2.1 °F 1.4 °F 85% 29.92 in 7.0 mi East 3.5 mph - N/A   Overcast
3:16 PM 5.0 °F -6.9 °F -0.4 °F 78% 29.93 in 7.0 mi ENE 6.9 mph - N/A   Overcast
3:36 PM 3.2 °F -9.1 °F -0.4 °F 85% 29.93 in 8.0 mi East 6.9 mph - N/A   Overcast
3:56 PM 3.2 °F -4.2 °F -0.4 °F 85% 29.94 in 5.0 mi ENE 3.5 mph - N/A   Overcast
4:16 PM 1.4 °F -6.2 °F -2.2 °F 85% 29.94 in 5.0 mi East 3.5 mph - N/A   Mostly Cloudy
4:36 PM -0.4 °F - -5.8 °F 78% 29.94 in 9.0 mi Calm Calm - N/A   Partly Cloudy
4:56 PM -2.2 °F - -9.4 °F 71% 29.94 in 10.0 mi Calm Calm - N/A   Clear
5:16 PM -4.0 °F - -9.4 °F 78% 29.94 in 10.0 mi Calm Calm - N/A   Clear
5:36 PM -5.8 °F - -9.4 °F 84% 29.94 in 10.0 mi Calm Calm - N/A   Clear
5:56 PM -7.6 °F - -13.0 °F 77% 29.94 in 10.0 mi Calm Calm - N/A   Clear
6:36 PM -7.6 °F - -18.4 °F 59% 29.94 in 10.0 mi Calm Calm - N/A   Clear
6:56 PM -9.4 °F - -14.8 °F 77% 29.95 in 10.0 mi Calm Calm - N/A   Clear
7:16 PM -7.6 °F - -13.0 °F 77% 29.94 in 10.0 mi Calm Calm - N/A   Partly Cloudy
7:36 PM -11.2 °F -23.0 °F -13.0 °F 92% 29.95 in 10.0 mi WNW 4.6 mph - N/A   Clear
7:56 PM -9.4 °F - -14.8 °F 77% 29.96 in 10.0 mi Calm Calm - N/A   Clear
8:16 PM -11.2 °F - -18.4 °F 70% 29.95 in 10.0 mi Calm Calm - N/A   Clear
8:36 PM -11.2 °F - -16.6 °F 77% 29.96 in 10.0 mi Calm Calm - N/A   Clear
8:56 PM -11.2 °F - -16.6 °F 77% 29.96 in 10.0 mi Calm Calm - N/A   Scattered Clouds
9:16 PM -13.0 °F - -16.6 °F 84% 29.96 in 10.0 mi Calm Calm - N/A   Scattered Clouds
9:36 PM -11.2 °F - -13.0 °F 92% 29.95 in 0.5 mi Calm Calm - N/A   Overcast
9:56 PM -11.2 °F - -18.4 °F 70% 29.95 in 0.5 mi Calm Calm - N/A   Overcast
10:16 PM -13.0 °F -22.7 °F -16.6 °F 84% 29.95 in 10.0 mi East 3.5 mph - N/A   Overcast
10:36 PM -9.4 °F - -9.4 °F 100% 29.94 in 10.0 mi Calm Calm - N/A   Overcast
10:56 PM -9.4 °F -20.9 °F -18.4 °F 65% 29.94 in 10.0 mi East 4.6 mph - N/A   Overcast
11:16 PM -9.4 °F -20.9 °F -9.4 °F 100% 29.94 in 10.0 mi East 4.6 mph - N/A   Overcast
11:36 PM -9.4 °F -18.6 °F -13.0 °F 84% 29.94 in 10.0 mi East 3.5 mph - N/A   Overcast
11:56 PM -7.6 °F - -11.2 °F 84% 29.94 in 10.0 mi Calm Calm - N/A   Overcast